Time,TemperatureF,DewpointF,PressureIn,WindDirection,WindDirectionDegrees,WindSpeedMPH,WindSpeedGustMPH,Humidity,HourlyPrecipIn,Conditions,Clouds,dailyrainin,SoftwareType,DateUTC
2013-07-18 00:00:00,76.0,71.5,30.01,SE,134,0.0,0.0,86,0.00,,---,0.00,VWS V14.01,2013-07-18 04:00:00,
2013-07-18 00:10:00,76.1,71.9,30.00,SE,132,0.0,0.0,87,0.00,,---,0.00,VWS V14.01,2013-07-18 04:10:00,
2013-07-18 00:20:00,76.0,71.5,30.01,SE,134,0.0,0.0,86,0.00,,---,0.00,VWS V14.01,2013-07-18 04:20:00,
2013-07-18 00:30:00,76.0,71.9,30.00,SE,133,0.0,0.0,87,0.00,,---,0.00,VWS V14.01,2013-07-18 04:30:00,
2013-07-18 00:40:00,76.1,71.9,30.00,SE,134,0.0,0.0,87,0.00,,---,0.00,VWS V14.01,2013-07-18 04:40:00,
2013-07-18 00:50:00,75.9,71.8,30.01,SE,131,0.0,0.0,87,0.00,,---,0.00,VWS V14.01,2013-07-18 04:50:00,
2013-07-18 01:00:00,75.7,71.6,30.00,SE,133,0.0,0.0,87,0.00,,---,0.00,VWS V14.01,2013-07-18 05:00:00,
2013-07-18 01:10:00,75.5,71.7,30.00,SE,131,0.0,0.0,88,0.00,,---,0.00,VWS V14.01,2013-07-18 05:10:00,
2013-07-18 01:20:00,75.2,71.4,30.00,SE,132,0.0,0.0,88,0.00,,---,0.00,VWS V14.01,2013-07-18 05:20:00,
2013-07-18 01:30:00,75.0,71.5,29.99,SE,133,0.0,0.0,89,0.00,,---,0.00,VWS V14.01,2013-07-18 05:30:00,
2013-07-18 01:40:00,74.7,71.2,29.99,SE,132,0.0,0.0,89,0.00,,---,0.00,VWS V14.01,2013-07-18 05:40:00,
2013-07-18 01:50:00,74.5,71.4,29.99,SE,127,0.0,0.0,90,0.00,,---,0.00,VWS V14.01,2013-07-18 05:50:00,
2013-07-18 02:00:00,74.3,71.2,29.99,SE,127,0.0,0.0,90,0.00,,---,0.00,VWS V14.01,2013-07-18 06:00:00,
2013-07-18 02:10:00,74.1,71.0,29.99,SE,127,0.0,0.0,90,0.00,,---,0.00,VWS V14.01,2013-07-18 06:10:00,
2013-07-18 02:20:00,74.0,71.2,29.98,SE,127,0.0,0.0,91,0.00,,---,0.00,VWS V14.01,2013-07-18 06:20:00,
2013-07-18 02:30:00,74.1,71.3,29.98,SE,127,0.0,0.0,91,0.00,,---,0.00,VWS V14.01,2013-07-18 06:30:00,
2013-07-18 02:40:00,74.2,71.4,29.98,SE,127,0.0,0.0,91,0.00,,---,0.00,VWS V14.01,2013-07-18 06:40:00,
2013-07-18 02:50:00,74.3,71.2,29.97,SE,130,0.0,1.0,90,0.00,,---,0.00,VWS V14.01,2013-07-18 06:50:00,
2013-07-18 03:00:00,74.3,71.2,29.98,SE,130,0.0,0.0,90,0.00,,---,0.00,VWS V14.01,2013-07-18 07:00:00,
2013-07-18 03:10:00,74.1,71.0,29.98,SE,129,0.0,0.0,90,0.00,,---,0.00,VWS V14.01,2013-07-18 07:10:00,
2013-07-18 03:20:00,74.0,71.2,29.97,SE,127,0.0,0.0,91,0.00,,---,0.00,VWS V14.01,2013-07-18 07:20:00,
2013-07-18 03:30:00,73.9,71.1,29.97,SE,127,0.0,0.0,91,0.00,,---,0.00,VWS V14.01,2013-07-18 07:30:00,
2013-07-18 03:40:00,73.8,71.0,29.96,SE,127,0.0,0.0,91,0.00,,---,0.00,VWS V14.01,2013-07-18 07:40:00,
2013-07-18 03:50:00,73.6,70.8,29.96,SE,127,0.0,0.0,91,0.00,,---,0.00,VWS V14.01,2013-07-18 07:50:00,
2013-07-18 04:00:00,73.5,71.0,29.96,SE,127,0.0,0.0,92,0.00,,---,0.00,VWS V14.01,2013-07-18 08:00:00,
2013-07-18 04:10:00,73.7,70.9,29.96,SE,127,0.0,0.0,91,0.00,,---,0.00,VWS V14.01,2013-07-18 08:10:00,
2013-07-18 04:20:00,73.7,70.9,29.96,SE,127,0.0,0.0,91,0.00,,---,0.00,VWS V14.01,2013-07-18 08:20:00,
2013-07-18 04:30:00,73.7,70.9,29.96,SE,127,0.0,0.0,91,0.00,,---,0.00,VWS V14.01,2013-07-18 08:30:00,
2013-07-18 04:40:00,73.6,70.8,29.96,SE,127,0.0,0.0,91,0.00,,---,0.00,VWS V14.01,2013-07-18 08:40:00,
2013-07-18 04:50:00,73.4,70.9,29.96,SE,127,0.0,0.0,92,0.00,,---,0.00,VWS V14.01,2013-07-18 08:50:00,
2013-07-18 05:00:00,73.2,70.7,29.96,SE,127,0.0,0.0,92,0.00,,---,0.00,VWS V14.01,2013-07-18 09:00:00,
2013-07-18 05:10:00,73.2,70.7,29.95,SE,127,0.0,0.0,92,0.00,,---,0.00,VWS V14.01,2013-07-18 09:10:00,
2013-07-18 05:20:00,73.1,70.6,29.96,SE,128,0.0,0.0,92,0.00,,---,0.00,VWS V14.01,2013-07-18 09:20:00,
2013-07-18 05:30:00,72.7,70.2,29.96,SE,129,0.0,0.0,92,0.00,,---,0.00,VWS V14.01,2013-07-18 09:30:00,
2013-07-18 05:40:00,72.7,70.6,29.97,SE,129,0.0,0.0,93,0.00,,---,0.00,VWS V14.01,2013-07-18 09:40:00,
2013-07-18 05:50:00,72.6,70.5,29.97,SE,128,0.0,0.0,93,0.00,,---,0.00,VWS V14.01,2013-07-18 09:50:00,
2013-07-18 06:00:00,72.3,70.5,29.97,SE,128,0.0,0.0,94,0.00,,---,0.00,VWS V14.01,2013-07-18 10:00:00,
2013-07-18 06:10:00,72.1,70.6,29.97,SE,128,0.0,0.0,95,0.00,,---,0.00,VWS V14.01,2013-07-18 10:10:00,
2013-07-18 06:20:00,72.0,70.5,29.97,SE,128,0.0,0.0,95,0.00,,---,0.00,VWS V14.01,2013-07-18 10:20:00,
2013-07-18 06:30:00,72.1,70.9,29.98,SE,138,0.0,0.0,96,0.00,,---,0.00,VWS V14.01,2013-07-18 10:30:00,
2013-07-18 06:40:00,72.6,71.4,29.98,SE,139,0.0,0.0,96,0.00,,---,0.00,VWS V14.01,2013-07-18 10:40:00,
2013-07-18 06:50:00,73.5,72.0,29.98,SE,139,0.0,0.0,95,0.00,,---,0.00,VWS V14.01,2013-07-18 10:50:00,
2013-07-18 07:00:00,74.6,72.4,29.98,SE,139,0.0,0.0,93,0.00,,---,0.00,VWS V14.01,2013-07-18 11:00:00,
2013-07-18 07:10:00,75.5,73.0,29.98,SE,138,0.0,0.0,92,0.00,,---,0.00,VWS V14.01,2013-07-18 11:10:00,
2013-07-18 07:20:00,76.1,73.0,29.98,SE,138,0.0,0.0,90,0.00,,---,0.00,VWS V14.01,2013-07-18 11:20:00,
2013-07-18 07:30:00,76.9,73.4,29.99,South,178,0.0,0.0,89,0.00,,---,0.00,VWS V14.01,2013-07-18 11:30:00,
2013-07-18 07:40:00,77.6,73.8,29.99,SSW,212,0.0,0.0,88,0.00,,---,0.00,VWS V14.01,2013-07-18 11:40:00,
2013-07-18 07:50:00,78.4,74.6,29.99,SW,214,0.0,0.0,88,0.00,,---,0.00,VWS V14.01,2013-07-18 11:50:00,
2013-07-18 08:00:00,79.0,74.5,29.99,SSW,211,0.0,0.0,86,0.00,,---,0.00,VWS V14.01,2013-07-18 12:00:00,
2013-07-18 08:10:00,80.0,75.1,29.99,SSW,211,0.0,0.0,85,0.00,,---,0.00,VWS V14.01,2013-07-18 12:10:00,
2013-07-18 08:20:00,80.9,75.3,29.99,WNW,293,0.0,2.0,83,0.00,,---,0.00,VWS V14.01,2013-07-18 12:20:00,
2013-07-18 08:30:00,82.1,75.7,29.99,SW,217,1.0,3.0,81,0.00,,---,0.00,VWS V14.01,2013-07-18 12:30:00,
2013-07-18 08:40:00,83.1,76.3,29.99,West,273,0.0,2.0,80,0.00,,---,0.00,VWS V14.01,2013-07-18 12:40:00,
2013-07-18 08:50:00,83.3,76.1,29.99,West,280,0.0,2.0,79,0.00,,---,0.00,VWS V14.01,2013-07-18 12:50:00,
2013-07-18 09:00:00,83.9,76.3,29.99,WSW,250,0.0,3.0,78,0.00,,---,0.00,VWS V14.01,2013-07-18 13:00:00,
2013-07-18 09:10:00,84.9,75.7,29.99,NW,316,2.0,2.0,74,0.00,,---,0.00,VWS V14.01,2013-07-18 13:10:00,
2013-07-18 09:20:00,85.5,75.4,29.99,WNW,283,0.0,2.0,72,0.00,,---,0.00,VWS V14.01,2013-07-18 13:20:00,
2013-07-18 09:30:00,85.2,75.6,29.99,NW,307,0.0,5.0,73,0.00,,---,0.00,VWS V14.01,2013-07-18 13:30:00,
2013-07-18 09:40:00,85.7,74.8,29.99,West,281,0.0,3.0,70,0.00,,---,0.00,VWS V14.01,2013-07-18 13:40:00,
2013-07-18 09:50:00,86.3,75.8,29.99,West,259,1.0,3.0,71,0.00,,---,0.00,VWS V14.01,2013-07-18 13:50:00,
2013-07-18 10:00:00,86.1,75.2,29.99,WNW,283,0.0,6.0,70,0.00,,---,0.00,VWS V14.01,2013-07-18 14:00:00,
2013-07-18 10:10:00,86.4,74.6,29.99,West,280,1.0,4.0,68,0.00,,---,0.00,VWS V14.01,2013-07-18 14:10:00,
2013-07-18 10:20:00,86.9,74.2,29.98,WNW,300,1.0,6.0,66,0.00,,---,0.00,VWS V14.01,2013-07-18 14:20:00,
2013-07-18 10:30:00,87.2,75.4,29.98,NW,309,1.0,4.0,68,0.00,,---,0.00,VWS V14.01,2013-07-18 14:30:00,
2013-07-18 10:40:00,87.5,74.8,29.98,NW,315,1.0,4.0,66,0.00,,---,0.00,VWS V14.01,2013-07-18 14:40:00,
2013-07-18 10:50:00,88.0,76.1,29.98,West,281,0.0,2.0,68,0.00,,---,0.00,VWS V14.01,2013-07-18 14:50:00,
2013-07-18 11:00:00,88.4,75.6,29.98,WSW,256,1.0,7.0,66,0.00,,---,0.00,VWS V14.01,2013-07-18 15:00:00,
2013-07-18 11:10:00,88.4,75.1,29.98,WSW,238,1.0,5.0,65,0.00,,---,0.00,VWS V14.01,2013-07-18 15:10:00,
2013-07-18 11:20:00,88.6,75.3,29.98,West,264,0.0,5.0,65,0.00,,---,0.00,VWS V14.01,2013-07-18 15:20:00,
2013-07-18 11:30:00,89.2,75.4,29.98,NNE,22,0.0,4.0,64,0.00,,---,0.00,VWS V14.01,2013-07-18 15:30:00,
2013-07-18 11:40:00,89.2,75.9,29.98,WNW,290,1.0,3.0,65,0.00,,---,0.00,VWS V14.01,2013-07-18 15:40:00,
2013-07-18 11:50:00,89.3,74.6,29.98,NW,316,0.0,6.0,62,0.00,,---,0.00,VWS V14.01,2013-07-18 15:50:00,
2013-07-18 12:00:00,88.9,74.7,29.97,West,277,2.0,6.0,63,0.00,,---,0.00,VWS V14.01,2013-07-18 16:00:00,
2013-07-18 12:10:00,89.0,75.2,29.97,SW,233,1.0,4.0,64,0.00,,---,0.00,VWS V14.01,2013-07-18 16:10:00,
2013-07-18 12:20:00,90.1,75.8,29.98,WNW,288,2.0,3.0,63,0.00,,---,0.00,VWS V14.01,2013-07-18 16:20:00,
2013-07-18 12:30:00,90.6,75.3,29.97,WNW,300,1.0,4.0,61,0.00,,---,0.00,VWS V14.01,2013-07-18 16:30:00,
2013-07-18 12:40:00,90.0,75.2,29.97,West,278,1.0,3.0,62,0.00,,---,0.00,VWS V14.01,2013-07-18 16:40:00,
2013-07-18 12:50:00,90.4,74.6,29.97,West,274,2.0,3.0,60,0.00,,---,0.00,VWS V14.01,2013-07-18 16:50:00,
2013-07-18 13:00:00,90.2,75.4,29.97,WNW,292,1.0,6.0,62,0.00,,---,0.00,VWS V14.01,2013-07-18 17:00:00,
2013-07-18 13:10:00,90.9,75.1,29.97,SE,134,0.0,4.0,60,0.00,,---,0.00,VWS V14.01,2013-07-18 17:10:00,
2013-07-18 13:20:00,90.0,75.2,29.97,NW,319,0.0,5.0,62,0.00,,---,0.00,VWS V14.01,2013-07-18 17:20:00,
2013-07-18 13:30:00,89.9,74.2,29.96,NW,312,0.0,3.0,60,0.00,,---,0.00,VWS V14.01,2013-07-18 17:30:00,
2013-07-18 13:40:00,90.1,73.8,29.96,WNW,299,0.0,3.0,59,0.00,,---,0.00,VWS V14.01,2013-07-18 17:40:00,
2013-07-18 13:50:00,91.1,74.8,29.96,WSW,257,2.0,3.0,59,0.00,,---,0.00,VWS V14.01,2013-07-18 17:50:00,
2013-07-18 14:00:00,91.6,75.2,29.96,WSW,243,1.0,5.0,59,0.00,,---,0.00,VWS V14.01,2013-07-18 18:00:00,
2013-07-18 14:10:00,91.6,75.8,29.95,NW,323,0.0,4.0,60,0.00,,---,0.00,VWS V14.01,2013-07-18 18:10:00,
2013-07-18 14:20:00,91.3,72.3,29.95,NW,323,0.0,4.0,54,0.00,,---,0.00,VWS V14.01,2013-07-18 18:20:00,
2013-07-18 14:30:00,91.5,73.6,29.95,NW,314,1.0,5.0,56,0.00,,---,0.00,VWS V14.01,2013-07-18 18:30:00,
2013-07-18 14:40:00,91.4,74.0,29.94,WSW,255,1.0,5.0,57,0.00,,---,0.00,VWS V14.01,2013-07-18 18:40:00,
2013-07-18 14:50:00,91.6,75.8,29.94,WNW,290,2.0,5.0,60,0.00,,---,0.00,VWS V14.01,2013-07-18 18:50:00,
2013-07-18 15:00:00,91.6,75.8,29.93,WSW,240,1.0,3.0,60,0.00,,---,0.00,VWS V14.01,2013-07-18 19:00:00,
2013-07-18 15:10:00,91.7,75.8,29.93,SSW,211,0.0,5.0,60,0.00,,---,0.00,VWS V14.01,2013-07-18 19:10:00,
2013-07-18 15:20:00,92.3,74.9,29.93,NNW,335,2.0,4.0,57,0.00,,---,0.00,VWS V14.01,2013-07-18 19:20:00,
2013-07-18 15:30:00,91.7,73.8,29.93,SW,222,1.0,8.0,56,0.00,,---,0.00,VWS V14.01,2013-07-18 19:30:00,
2013-07-18 15:40:00,91.7,73.8,29.93,SW,215,1.0,5.0,56,0.00,,---,0.00,VWS V14.01,2013-07-18 19:40:00,
2013-07-18 15:50:00,91.8,73.3,29.93,NW,309,1.0,8.0,55,0.00,,---,0.00,VWS V14.01,2013-07-18 19:50:00,
2013-07-18 16:00:00,91.6,73.7,29.92,WSW,242,0.0,9.0,56,0.00,,---,0.00,VWS V14.01,2013-07-18 20:00:00,
2013-07-18 16:10:00,92.3,74.3,29.92,NNW,330,1.0,3.0,56,0.00,,---,0.00,VWS V14.01,2013-07-18 20:10:00,
2013-07-18 16:20:00,92.1,73.6,29.92,WNW,290,4.0,9.0,55,0.00,,---,0.00,VWS V14.01,2013-07-18 20:20:00,
2013-07-18 16:30:00,91.7,73.8,29.92,SSW,193,3.0,6.0,56,0.00,,---,0.00,VWS V14.01,2013-07-18 20:30:00,
2013-07-18 16:40:00,92.0,75.6,29.91,SW,221,0.0,4.0,59,0.00,,---,0.00,VWS V14.01,2013-07-18 20:40:00,
2013-07-18 16:50:00,91.8,74.9,29.91,SW,217,1.0,5.0,58,0.00,,---,0.00,VWS V14.01,2013-07-18 20:50:00,
2013-07-18 17:00:00,91.4,74.6,29.91,SSW,211,0.0,7.0,58,0.00,,---,0.00,VWS V14.01,2013-07-18 21:00:00,
2013-07-18 17:10:00,91.1,74.8,29.91,WSW,243,1.0,4.0,59,0.00,,---,0.00,VWS V14.01,2013-07-18 21:10:00,
2013-07-18 17:20:00,90.3,74.5,29.90,West,263,0.0,6.0,60,0.00,,---,0.00,VWS V14.01,2013-07-18 21:20:00,
2013-07-18 17:30:00,89.1,73.9,29.91,SW,218,1.0,4.0,61,0.00,,---,0.00,VWS V14.01,2013-07-18 21:30:00,
2013-07-18 17:40:00,88.4,74.2,29.91,SSW,208,0.0,2.0,63,0.00,,---,0.00,VWS V14.01,2013-07-18 21:40:00,
2013-07-18 17:50:00,88.0,74.8,29.91,West,280,0.0,0.0,65,0.00,,---,0.00,VWS V14.01,2013-07-18 21:50:00,
2013-07-18 18:00:00,87.8,75.0,29.91,West,279,0.0,0.0,66,0.00,,---,0.00,VWS V14.01,2013-07-18 22:00:00,
2013-07-18 18:10:00,88.6,75.8,29.91,West,279,0.0,0.0,66,0.00,,---,0.00,VWS V14.01,2013-07-18 22:10:00,
2013-07-18 18:20:00,89.1,74.9,29.91,NW,323,1.0,3.0,63,0.00,,---,0.00,VWS V14.01,2013-07-18 22:20:00,
2013-07-18 18:30:00,89.3,75.1,29.91,NNW,331,0.0,1.0,63,0.00,,---,0.00,VWS V14.01,2013-07-18 22:30:00,
2013-07-18 18:40:00,89.8,75.5,29.91,West,269,0.0,0.0,63,0.00,,---,0.00,VWS V14.01,2013-07-18 22:40:00,
2013-07-18 18:50:00,89.1,75.3,29.92,WNW,284,0.0,2.0,64,0.00,,---,0.00,VWS V14.01,2013-07-18 22:50:00,
2013-07-18 19:00:00,88.3,75.1,29.92,WNW,285,0.0,1.0,65,0.00,,---,0.00,VWS V14.01,2013-07-18 23:00:00,
2013-07-18 19:10:00,87.3,76.3,29.92,WNW,284,0.0,1.0,70,0.00,,---,0.00,VWS V14.01,2013-07-18 23:10:00,
2013-07-18 19:20:00,86.5,76.8,29.92,WNW,284,0.0,0.0,73,0.00,,---,0.00,VWS V14.01,2013-07-18 23:20:00,
2013-07-18 19:30:00,85.5,77.1,29.92,WNW,284,0.0,0.0,76,0.00,,---,0.00,VWS V14.01,2013-07-18 23:30:00,
2013-07-18 19:40:00,84.8,76.8,29.92,WNW,284,0.0,0.0,77,0.00,,---,0.00,VWS V14.01,2013-07-18 23:40:00,
2013-07-18 19:50:00,84.4,76.0,29.92,WNW,284,0.0,0.0,76,0.00,,---,0.00,VWS V14.01,2013-07-18 23:50:00,
2013-07-18 20:00:00,84.1,76.5,29.92,WNW,284,0.0,0.0,78,0.00,,---,0.00,VWS V14.01,2013-07-19 00:00:00,
2013-07-18 20:10:00,83.7,76.5,29.91,WNW,284,0.0,0.0,79,0.00,,---,0.00,VWS V14.01,2013-07-19 00:10:00,
2013-07-18 20:20:00,83.3,76.5,29.92,WNW,284,0.0,0.0,80,0.00,,---,0.00,VWS V14.01,2013-07-19 00:20:00,
2013-07-18 20:30:00,82.9,76.5,29.92,WNW,284,0.0,0.0,81,0.00,,---,0.00,VWS V14.01,2013-07-19 00:30:00,
2013-07-18 20:40:00,82.4,76.4,29.92,WNW,284,0.0,0.0,82,0.00,,---,0.00,VWS V14.01,2013-07-19 00:40:00,
2013-07-18 20:50:00,82.0,76.3,29.91,WNW,284,0.0,0.0,83,0.00,,---,0.00,VWS V14.01,2013-07-19 00:50:00,
2013-07-18 21:00:00,81.6,75.9,29.92,WNW,284,0.0,0.0,83,0.00,,---,0.00,VWS V14.01,2013-07-19 01:00:00,
2013-07-18 21:10:00,81.6,75.9,29.93,WNW,294,0.0,1.0,83,0.00,,---,0.00,VWS V14.01,2013-07-19 01:10:00,
2013-07-18 21:20:00,81.4,75.4,29.93,WNW,294,0.0,1.0,82,0.00,,---,0.00,VWS V14.01,2013-07-19 01:20:00,
2013-07-18 21:30:00,81.1,75.4,29.93,WNW,294,0.0,1.0,83,0.00,,---,0.00,VWS V14.01,2013-07-19 01:30:00,
2013-07-18 21:40:00,80.6,75.3,29.93,WNW,294,0.0,0.0,84,0.00,,---,0.00,VWS V14.01,2013-07-19 01:40:00,
2013-07-18 21:50:00,80.1,74.8,29.93,WNW,294,0.0,0.0,84,0.00,,---,0.00,VWS V14.01,2013-07-19 01:50:00,
2013-07-18 22:00:00,79.5,74.2,29.93,WNW,294,0.0,0.0,84,0.00,,---,0.00,VWS V14.01,2013-07-19 02:00:00,
2013-07-18 22:10:00,79.0,73.8,29.92,WNW,293,0.0,0.0,84,0.00,,---,0.00,VWS V14.01,2013-07-19 02:10:00,
2013-07-18 22:20:00,78.6,73.7,29.93,WNW,293,0.0,0.0,85,0.00,,---,0.00,VWS V14.01,2013-07-19 02:20:00,
2013-07-18 22:30:00,78.1,73.6,29.93,WNW,294,0.0,0.0,86,0.00,,---,0.00,VWS V14.01,2013-07-19 02:30:00,
2013-07-18 22:40:00,77.8,73.6,29.93,WNW,294,0.0,0.0,87,0.00,,---,0.00,VWS V14.01,2013-07-19 02:40:00,
2013-07-18 22:50:00,77.4,73.6,29.92,WNW,294,0.0,0.0,88,0.00,,---,0.00,VWS V14.01,2013-07-19 02:50:00,
2013-07-18 23:00:00,77.6,73.8,29.91,WNW,294,0.0,0.0,88,0.00,,---,0.00,VWS V14.01,2013-07-19 03:00:00,
2013-07-18 23:10:00,77.4,73.9,29.91,WNW,294,0.0,0.0,89,0.00,,---,0.00,VWS V14.01,2013-07-19 03:10:00,
2013-07-18 23:20:00,77.1,73.6,29.91,WNW,294,0.0,0.0,89,0.00,,---,0.00,VWS V14.01,2013-07-19 03:20:00,
2013-07-18 23:30:00,76.6,73.4,29.91,WNW,294,0.0,0.0,90,0.00,,---,0.00,VWS V14.01,2013-07-19 03:30:00,
2013-07-18 23:40:00,76.3,73.8,29.90,WNW,294,0.0,0.0,92,0.00,,---,0.00,VWS V14.01,2013-07-19 03:40:00,
2013-07-18 23:50:00,76.1,73.6,29.90,WNW,294,0.0,0.0,92,0.00,,---,0.00,VWS V14.01,2013-07-19 03:50:00,